Weather History for Gunnison, CO

Change the Weather History Date:

Tuesday, October 16, 2012

  Actual Average Record
Temperature  
Mean Temperature 45 °F -  
Max Temperature 66 °F 57 °F 71 °F (2011)
Min Temperature 24 °F 21 °F 15 °F (2000)
Degree Days  
Heating Degree Days 20    
Moisture  
Dew Point 24 °F    
Average Humidity 49    
Maximum Humidity 80    
Minimum Humidity 21    
Precipitation  
Precipitation 0.00 in - - ()
Sea Level Pressure  
Sea Level Pressure 30.09 in    
Wind  
Wind Speed 4 mph (West)    
Max Wind Speed 24 mph    
Max Gust Speed 34 mph    
Visibility 10 miles    
Events      
Averages and records for this station are not official NWS values.
T = Trace of Precipitation, MM = Missing Value Source: NWS Daily Summary

Daily Weather History Graph

Daily Weather History Graph

Search for Another Location

Airport:

Trip Planner

Search our weather history database for the weather conditions in past years. The results will help you decide how hot, cold, wet, or windy it might be!

Date:

Astronomy

Oct. 16, 2012 Rise Set
Actual Time 7:18 AM MDT 6:27 PM MDT
Civil Twilight 6:51 AM MDT 6:54 PM MDT
Nautical Twilight 6:20 AM MDT 7:24 PM MDT
Astronomical Twilight 5:50 AM MDT 7:55 PM MDT
Moon 8:43 AM MDT (10/16) 7:16 PM MDT (10/16)
Length of Visible Light 12h 02m
Length of Day
11h 09m
New Moon, 2% of the Moon is Illuminated
Oct 16
New Moon
Oct 21
First Quarter
Oct 29
Full
Nov 6
Last Quarter
Nov 13
New

Hourly Weather History & Observations

Time (MDT) Temp. Windchill Dew Point Humidity Pressure Visibility Wind Dir Wind Speed Gust Speed Precip Events Conditions
12:15 AM 35.6 °F - 24.8 °F 65% 30.22 in 10.0 mi Calm Calm - N/A   Clear
12:35 AM 33.8 °F 30.8 °F 21.2 °F 60% 30.24 in 10.0 mi NNW 3.5 mph - N/A   Clear
12:55 AM 32.0 °F 28.7 °F 19.4 °F 60% 30.24 in 10.0 mi SE 3.5 mph - N/A   Clear
1:15 AM 30.2 °F - 19.4 °F 64% 30.23 in 10.0 mi Calm Calm - N/A   Clear
1:35 AM 33.8 °F - 23.0 °F 65% 30.25 in 10.0 mi Calm Calm - N/A   Clear
1:55 AM 32.0 °F - 23.0 °F 69% 30.25 in 10.0 mi Calm Calm - N/A   Clear
2:15 AM 32.0 °F - 23.0 °F 69% 30.25 in 10.0 mi Calm Calm - N/A   Clear
2:35 AM 30.2 °F - 24.8 °F 80% 30.25 in 10.0 mi Calm Calm - N/A   Clear
2:55 AM 28.4 °F 23.3 °F 19.4 °F 69% 30.24 in 10.0 mi SSE 4.6 mph - N/A   Clear
3:15 AM 30.2 °F - 23.0 °F 75% 30.23 in 10.0 mi Calm Calm - N/A   Clear
3:35 AM 30.2 °F - 23.0 °F 75% 30.22 in 10.0 mi Calm Calm - N/A   Clear
3:55 AM 30.2 °F 26.7 °F 21.2 °F 69% 30.22 in 10.0 mi NNE 3.5 mph - N/A   Clear
4:15 AM 30.2 °F 26.7 °F 19.4 °F 64% 30.22 in 10.0 mi North 3.5 mph - N/A   Clear
4:35 AM 28.4 °F 24.6 °F 19.4 °F 69% 30.21 in 10.0 mi NNW 3.5 mph - N/A   Clear
4:55 AM 26.6 °F - 19.4 °F 74% 30.21 in 10.0 mi Calm Calm - N/A   Clear
5:35 AM 26.6 °F 21.2 °F 21.2 °F 80% 30.22 in 10.0 mi NNW 4.6 mph - N/A   Clear
6:15 AM 26.6 °F - 17.6 °F 69% 30.21 in 10.0 mi Calm Calm - N/A   Clear
6:35 AM 24.8 °F - 19.4 °F 80% 30.21 in 10.0 mi Calm Calm - N/A   Clear
6:55 AM 26.6 °F - 19.4 °F 74% 30.21 in 10.0 mi Calm Calm - N/A   Clear
7:15 AM 26.6 °F - 19.4 °F 74% 30.21 in 10.0 mi Calm Calm - N/A   Clear
7:35 AM 26.6 °F - 19.4 °F 74% 30.21 in 10.0 mi Calm Calm - N/A   Clear
7:55 AM 24.8 °F - 17.6 °F 74% 30.22 in 10.0 mi Calm Calm - N/A   Clear
8:15 AM 26.6 °F - 21.2 °F 80% 30.22 in 10.0 mi Calm Calm - N/A   Clear
8:35 AM 28.4 °F - 21.2 °F 74% 30.23 in 10.0 mi Calm Calm - N/A   Clear
8:55 AM 32.0 °F - 23.0 °F 69% 30.23 in 10.0 mi Calm Calm - N/A   Clear
9:15 AM 33.8 °F - 23.0 °F 65% 30.22 in 10.0 mi Calm Calm - N/A   Clear
9:35 AM 35.6 °F 32.8 °F 23.0 °F 60% 30.21 in 10.0 mi NNE 3.5 mph - N/A   Clear
9:55 AM 37.4 °F - 24.8 °F 60% 30.21 in 10.0 mi Calm Calm - N/A   Clear
10:15 AM 39.2 °F - 24.8 °F 56% 30.20 in 10.0 mi Calm Calm - N/A   Clear
10:35 AM 42.8 °F - 24.8 °F 49% 30.18 in 10.0 mi Calm Calm - N/A   Clear
10:55 AM 46.4 °F - 24.8 °F 43% 30.18 in 10.0 mi Calm Calm - N/A   Clear
11:15 AM 46.4 °F 45.2 °F 24.8 °F 43% 30.16 in 10.0 mi SSE 3.5 mph - N/A   Clear
11:35 AM 50.0 °F - 26.6 °F 40% 30.15 in 10.0 mi SW 4.6 mph - N/A   Clear
12:15 PM 53.6 °F - 28.4 °F 38% 30.12 in 10.0 mi Calm Calm - N/A   Clear
12:35 PM 55.4 °F - 26.6 °F 33% 30.10 in 10.0 mi NE 8.1 mph - N/A   Clear
1:15 PM 60.8 °F - 28.4 °F 29% 30.05 in 10.0 mi WSW 13.8 mph 21.9 mph N/A   Clear
1:35 PM 62.6 °F - 26.6 °F 26% 30.03 in 10.0 mi WSW 11.5 mph 19.6 mph N/A   Clear
2:15 PM 64.4 °F - 24.8 °F 22% 30.00 in 10.0 mi SW 17.3 mph 26.5 mph N/A   Clear
2:35 PM 64.4 °F - 24.8 °F 22% 29.99 in 10.0 mi WSW 16.1 mph - N/A   Clear
2:55 PM 66.2 °F - 24.8 °F 21% 29.98 in 10.0 mi WSW 13.8 mph 21.9 mph N/A   Clear
3:15 PM 66.2 °F - 24.8 °F 21% 29.97 in 10.0 mi WSW 19.6 mph 27.6 mph N/A   Clear
4:15 PM 64.4 °F - 24.8 °F 22% 29.95 in 10.0 mi WSW 17.3 mph 28.8 mph N/A   Clear
4:35 PM 64.4 °F - 24.8 °F 22% 29.95 in 10.0 mi WSW 18.4 mph 25.3 mph N/A   Clear
4:55 PM 62.6 °F - 24.8 °F 24% 29.94 in 10.0 mi West 15.0 mph 24.2 mph N/A   Clear
5:15 PM 62.6 °F - 26.6 °F 26% 29.94 in 10.0 mi West 16.1 mph 21.9 mph N/A   Clear
5:35 PM 62.6 °F - 26.6 °F 26% 29.93 in 10.0 mi West 13.8 mph 23.0 mph N/A   Clear
6:35 PM 60.8 °F - 24.8 °F 25% 29.92 in 10.0 mi West 16.1 mph 19.6 mph N/A   Clear
6:55 PM 60.8 °F - 24.8 °F 25% 29.91 in 10.0 mi West 6.9 mph 17.3 mph N/A   Clear
7:15 PM 59.0 °F - 24.8 °F 27% 29.91 in 10.0 mi West 9.2 mph - N/A   Clear
7:35 PM 57.2 °F - 24.8 °F 29% 29.93 in 10.0 mi West 8.1 mph - N/A   Partly Cloudy
7:55 PM 57.2 °F - 24.8 °F 29% 29.93 in 10.0 mi West 6.9 mph - N/A   Partly Cloudy
8:15 PM 57.2 °F - 24.8 °F 29% 29.93 in 10.0 mi West 4.6 mph - N/A   Clear
8:35 PM 55.4 °F - 24.8 °F 31% 29.93 in 10.0 mi West 8.1 mph - N/A   Clear
8:55 PM 55.4 °F - 26.6 °F 33% 29.92 in 10.0 mi WNW 5.8 mph - N/A   Clear
9:35 PM 53.6 °F - 24.8 °F 33% 29.92 in 10.0 mi Calm Calm - N/A   Scattered Clouds
9:55 PM 55.4 °F - 26.6 °F 33% 29.92 in 10.0 mi Calm Calm - N/A   Overcast
10:15 PM 55.4 °F - 26.6 °F 33% 29.90 in 10.0 mi SW 5.8 mph - N/A   Mostly Cloudy
10:35 PM 55.4 °F - 26.6 °F 33% 29.91 in 10.0 mi WSW 8.1 mph - N/A   Mostly Cloudy
10:55 PM 55.4 °F - 26.6 °F 33% 29.90 in 10.0 mi WSW 5.8 mph - N/A   Mostly Cloudy
11:15 PM 57.2 °F - 26.6 °F 31% 29.91 in 10.0 mi West 16.1 mph 26.5 mph N/A   Scattered Clouds
11:35 PM 57.2 °F - 26.6 °F 31% 29.91 in 10.0 mi West 24.2 mph 29.9 mph N/A   Partly Cloudy
11:55 PM - - - N/A% 29.91 in 10.0 mi West 24.2 mph 34.5 mph N/A   Partly Cloudy